Vertical_Velocity
-0 7 1 -1 -1 -0 -0 -0 2 4 1 -0 2 -0 -1 -1 1 0 0 -2 -2 0 1 0 -2 1 1 1 0 0 -1 1
-1 6 0 -2 0 0 -1 1 2 6 7 5 -2 1 3 -0 -0 -0 -1 -1 -1 -2 -1 -2 -4 -4 -3 0 0 1 0 -0
6 -4 3 2 2 2 5 3 4 -1 3 -3 17 1 1 -0 -3 -4 -3 -3 -1 1 -2 -3 1 -2 -2 -1 -0 -1 -1 -2
10 -5 0 1 10 6 0 -2 2 10 7 10 9 -2 -0 0 -0 -0 -1 -0 -3 -3 -2 -1 -4 0 4 -1 -0 0 -1 -1
1 -0 1 0 11 -1 -3 9 4 -3 -0 -1 -2 -3 -2 -2 -2 -2 -2 -3 -1 -2 1 -0 -4 -0 -1 -1 1 -1 0 -3
-10 -2 3 22 1 0 8 0 -1 -1 1 -1 1 -2 1 2 0 1 -2 0 0 -5 -5 -1 -0 -2 -1 -0 -2 -2 -0 -4
-0 -5 -1 4 0 -1 6 1 -1 -2 1 1 1 -0 1 1 1 -0 -1 -1 -1 -2 -3 0 3 4 2 0 -1 1 -2 -4
-3 3 4 -1 -0 5 7 -0 -1 -1 -1 3 1 0 -0 2 0 1 2 1 4 5 1 -1 2 -1 2 4 3 -3 -4 -4
-0 -4 0 2 -0 -1 0 -0 -1 1 1 0 1 0 1 0 -0 0 2 1 -1 -0 -3 -2 -4 0 2 4 2 4 4 -0
1 1 2 1 3 -1 -2 -2 -1 1 -1 -1 -3 -4 -5 -3 -2 -3 -3 -5 -5 -3 -2 -3 -3 -1 -0 -2 -2 2 3 2
-3 -2 -2 1 -2 -3 3 -1 -4 -2 -3 -3 -2 -2 -2 -3 -2 -3 -2 0 -2 -3 -2 -1 -4 -4 -3 -3 -3 -4 -2 1
-4 -1 -2 -4 -1 -1 1 -0 -2 -2 -2 -2 -3 -1 -2 -2 -3 -4 -3 -3 0 -2 -3 -6 -4 -4 -2 -4 -3 -4 3 1
-2 -1 0 -3 -2 -1 -1 1 -3 -4 -3 -2 -2 -4 -3 -4 -2 -1 1 -1 -1 -2 -1 -1 1 -4 -3 -3 -3 -5 2 -7
-1 -4 -1 -2 -2 -2 -3 -4 -4 -3 -1 -3 -2 -2 -2 -1 -2 -1 -3 -2 -1 -1 -1 -2 -2 3 0 -4 2 -11 1 6
-2 -2 -1 -1 -1 -0 -1 -3 -2 -3 -3 -3 -3 0 -0 -1 -2 -2 -1 -3 -3 -3 -2 1 -0 -2 1 -2 1 -0 4 3
-3 -1 1 1 -1 -4 -5 -4 -3 -4 -6 -2 0 -0 -2 -1 -1 -1 -2 -2 -2 -1 -1 -2 -0 2 1 0 -1 -1 -1 10
-2 -1 -0 0 -1 -3 -4 -2 -2 -3 -2 0 -1 -2 -4 -2 -2 -4 -2 -3 -2 -3 -3 -4 -1 1 3 3 0 -3 -4 -4
1 -0 -2 -3 -3 -1 -1 -1 -1 -1 -2 1 -0 -2 1 -2 -1 -2 -3 -2 -3 -2 -3 -1 -3 -3 -4 -1 1 1 -2 -5
-2 -1 0 -0 -1 -2 -1 -0 -1 -1 -1 -5 -4 -3 -1 -2 -1 -2 -3 -3 -3 -2 -1 -1 -2 -2 -1 -2 -1 0 0 -1
-1 1 -1 -2 -0 -1 -2 -2 -2 -1 -2 -0 -1 -0 -3 -3 -4 -4 -4 -3 -2 -1 -1 -1 0 -1 -1 -0 1 -0 -0 2
Height
5858 5855 5855 5854 5852 5850 5848 5846 5844 5843 5842 5842 5843 5844 5845 5844 5843 5843 5844 5842 5841 5840 5840 5839 5839 5838 5837 5836 5835 5834 5832 5831
5855 5851 5851 5851 5851 5848 5846 5844 5841 5838 5837 5838 5841 5841 5841 5841 5840 5839 5838 5838 5836 5835 5834 5834 5834 5832 5830 5829 5827 5826 5825 5825
5855 5852 5849 5850 5847 5844 5844 5840 5838 5836 5834 5835 5836 5838 5838 5837 5836 5835 5834 5832 5831 5829 5829 5829 5828 5825 5823 5821 5819 5819 5818 5817
5853 5852 5850 5846 5843 5843 5842 5839 5838 5836 5836 5835 5835 5835 5835 5834 5831 5829 5827 5825 5823 5821 5821 5821 5821 5820 5819 5817 5815 5813 5812 5810
5849 5849 5848 5846 5844 5842 5841 5841 5838 5836 5835 5834 5833 5832 5832 5830 5828 5825 5824 5821 5820 5817 5816 5816 5816 5814 5813 5811 5810 5808 5806 5804
5848 5847 5846 5844 5842 5840 5838 5838 5836 5835 5834 5833 5831 5830 5828 5826 5824 5822 5820 5818 5816 5815 5814 5812 5811 5809 5807 5805 5803 5801 5799 5796
5847 5847 5844 5841 5838 5837 5836 5835 5835 5833 5831 5830 5828 5826 5824 5822 5820 5818 5817 5815 5812 5810 5808 5806 5804 5801 5800 5798 5796 5793 5792 5789
5843 5842 5840 5838 5836 5835 5834 5832 5832 5830 5828 5827 5824 5822 5821 5819 5817 5815 5812 5809 5806 5803 5801 5798 5796 5794 5791 5789 5786 5785 5784 5781
5843 5840 5837 5835 5832 5830 5830 5829 5828 5826 5825 5823 5821 5819 5817 5815 5812 5809 5805 5802 5799 5798 5795 5792 5789 5786 5783 5780 5777 5774 5772 5771
5837 5836 5833 5831 5828 5827 5827 5826 5825 5824 5823 5821 5818 5816 5814 5811 5808 5804 5801 5798 5795 5792 5789 5785 5781 5777 5774 5770 5767 5766 5763 5762
5835 5832 5829 5826 5825 5824 5824 5824 5824 5822 5820 5818 5815 5812 5809 5806 5802 5798 5795 5792 5789 5786 5781 5776 5772 5768 5765 5763 5761 5758 5756 5754
5832 5829 5828 5824 5823 5822 5822 5822 5821 5818 5815 5813 5811 5808 5804 5800 5797 5793 5789 5785 5781 5776 5772 5769 5766 5763 5759 5756 5754 5752 5750 5748
5830 5828 5826 5824 5823 5821 5821 5819 5817 5814 5812 5810 5806 5803 5799 5794 5791 5786 5782 5778 5774 5770 5766 5763 5759 5756 5754 5750 5747 5745 5743 5740
5828 5825 5824 5823 5821 5820 5818 5816 5814 5811 5808 5805 5801 5797 5792 5788 5784 5780 5775 5772 5767 5764 5760 5755 5752 5750 5747 5744 5741 5737 5737 5735
5825 5822 5822 5820 5819 5816 5814 5812 5809 5806 5803 5799 5795 5791 5787 5782 5778 5773 5769 5765 5761 5757 5753 5749 5744 5741 5739 5737 5735 5732 5730 5727
5821 5820 5819 5817 5815 5812 5810 5808 5805 5801 5797 5793 5789 5785 5781 5776 5771 5767 5762 5757 5753 5749 5745 5741 5737 5734 5731 5728 5726 5724 5722 5722
5818 5816 5815 5813 5811 5809 5806 5803 5799 5796 5792 5788 5784 5778 5773 5769 5764 5759 5754 5749 5745 5740 5736 5731 5727 5724 5721 5719 5717 5714 5712 5709
5814 5812 5810 5808 5806 5803 5801 5798 5794 5790 5786 5782 5777 5772 5767 5762 5757 5752 5746 5741 5736 5731 5727 5722 5718 5715 5711 5709 5706 5705 5702 5699
5808 5807 5805 5803 5801 5798 5795 5791 5787 5783 5779 5774 5769 5765 5760 5754 5749 5743 5738 5733 5728 5723 5718 5714 5710 5706 5702 5699 5696 5693 5690 5687
5804 5802 5801 5798 5795 5792 5788 5785 5781 5776 5771 5767 5762 5757 5751 5746 5741 5735 5730 5725 5720 5715 5711 5706 5702 5698 5694 5689 5685 5681 5677 5674